Погода в Сугояке

Россия / Челябинская область     55°44′05″N   62°03′55″E
темп.,
°C
ветер,
м/с
пор.,
м/с
влажн.,
%
обл.,
%
осадки,
мм/ч
давл.,
гПа
погр.,
м
14 апреля, ср
ср1423:00+8ююз411875 0.0 1036176
02:00+7юз4118819 0.0 1034200
05:00+6юз3690100 0.0 103496
08:00+8зюз379259 0.0 1034205
11:00+13з457618 0.0 1032439
14:00+17зюз456410 0.0 1031748
17:00+18зюз45605 0.0 1029858
20:00+14юз33755 0.0 102817
15 апреля, чт
чт1523:00+12юз338415 0.0 102828
02:00+10юз33825 0.0 102724
05:00+8юз22745 0.0 102716
08:00+10зюз23835 0.0 102689
11:00+16з34665 0.0 1024498
14:00+19зюз56445 0.0 10231117
17:00+19зюз47415 0.0 10211395
20:00+14зсз346067 0.0 102044
16 апреля, пт
пт1623:00+11з357179 0.0 102065
02:00+9зсз348145 0.0 101949
05:00+8зсз34840 0.0 101953
08:00+7ссв7108697 0.0 1021538
11:00+5св7118583 0.0 1024622
14:00+6св6864100 0.0 1025852
17:00+8св5650100 0.0 10251319
20:00+6св356460 0.0 102578
17 апреля, сб
сб1723:00+3в226849 0.0 102526
02:00+2в22715 0.0 102414
05:00+1ссз00733 0.0 102410
08:00+4сз34653 0.0 1023209
11:00+7ссз46485 0.0 10221243
14:00+9ссз563875 0.0 10221996
17:00+10ссз4542100 0.0 10211819
20:00+7всв115594 0.0 102013
18 апреля, вс
вс1823:00+6сз4861100 0.1 1020260
02:00+2зсз511670 0.0 1019324
05:00+2сз612755 0.0 1019570
08:00+2сз816612 0.0 10191790
11:00+3ссз11143944 0.0 10202258
14:00+2с111342100 0.0 10232467
17:00+1ссв81141100 0.0 10272197
20:00−1ссв610405 0.0 1030664